    Observer details:
    204 Schiaparelli Observatory.  Observer L. Buzzi.  0.38-m f/6.8 reflector
        + CCD.
    291 LPL/Spacewatch II.  Observer J. V. Scotti.  1.8-m f/2.7 reflector + CCD.
    474 Mount John Observatory, Lake Tekapo.  Observers A. C. Gilmore, P. M.
        Kilmartin.  1.0-m f/7.7 reflector + CCD.
    691 Steward Observatory, Kitt Peak.  Observers T. H. Bressi, R. S. McMillan,
        J. V. Scotti.  0.9-m f/3 reflector + CCD.
    695 Kitt Peak.  Observer T. Vorobjov.  1.3-m f/13 Cassegrain + CCD.
    807 Cerro Tololo.  Observers R. Holmes, T. Linder, V. Hoette.  Measurers
        R. Holmes, T. Linder.  0.41-m f/11 Ritchey-Chretien + CCD.
    F65 Haleakala-Faulkes Telescope North.  Observers P. Miller, P. Roche,
        A. Tripp, R. Miles, R. Holmes, S. Foglia, L. Buzzi.  Measurers L. Buzzi,
        S. Foglia.  2.0-m f/10 Ritchey-Chretien + CCD.
    G96 Mt. Lemmon Survey.  Observer A. R. Gibbs, A. D. Grauer, R. A. Kowalski.
        Measurers E. C. Beshore, A. Boattini, A. R. Gibbs, A. D. Grauer,
        R. E. Hill, R. A. Kowalski, S. M. Larson, R. H. McNaught.  1.5-m
        reflector + CCD.
    H01 Magdalena Ridge Observatory, Socorro.  Observers W. H. Ryan, E. V. Ryan.
        Measurer W. H. Ryan.  2.4-m f/8.9 reflector + CCD.
    H06 RAS Observatory, Mayhill.  Observer H. Sato.  0.50-m f/4.5 reflector + CCD,
        0.43-m f/6.8 astrograph  + CCD + f/4.5 focal reducer.
    H21 Astronomical Research Observatory, Westfield.  Observer R. Holmes.
        Measurers T. Vorobjov, L. Buzzi, S. Foglia.  0.81-m f/4.0 astrograph + CCD.
    J95 Great Shefford.  Observer P. Birtwhistle.  0.3-m Schmidt-Cassegrain + CCD.
    
    Orbital elements:
        C/2011 KP36 (Spacewatch)
    Epoch 2016 May 12.0 TT = JDT 2457520.5
    T 2016 May 27.90578 TT                                  MPC
    q   4.8856950            (2000.0)            P               Q
    z  +0.0261766      Peri.  180.60076     +0.99446842     +0.09816614
     +/-0.0000000      Node   173.40584     -0.09496083     +0.99229345
    e   0.8721094      Incl.   18.98722     -0.04488879     +0.07561168
    From 92 observations 2011 May 21-2012 May 17, mean residual 0".3.
    
    Ephemeris:
        C/2011 KP36 (Spacewatch)
    Date    TT    R. A. (2000) Decl.     Delta      r     Elong.  Phase   m1    m2
    2012 04 17    17 13 09.6 -03 01 43  10.2014 10.8336   126.9     4.3  19.9
    ...
    2012 05 02    17 10 49.6 -02 36 28   9.9671 10.7603   140.2     3.4  19.8
    ...
    2012 05 10    17 09 09.1 -02 24 35   9.8626 10.7211   146.7     3.0  19.8
    ...
    2012 05 16    17 07 44.0 -02 16 37   9.7947 10.6917   151.2     2.6  19.7
    2012 05 17    17 07 29.1 -02 15 23   9.7843 10.6868   151.9     2.6  19.7
    2012 05 18    17 07 14.1 -02 14 11   9.7741 10.6819   152.5     2.5  19.7
    ...
    2012 05 24    17 05 40.3 -02 07 32   9.7190 10.6525   156.1     2.2  19.7
    ...
    2012 06 01    17 03 28.4 -02 00 26   9.6609 10.6133   158.9     2.0  19.7
    ...
    2012 06 16    16 59 13.2 -01 53 03   9.6002 10.5397   156.5     2.2  19.6
    
    Gareth V. Williams           (C) Copyright 2012 MPC           M.P.E.C. 2012-K12
    

    Read MPEC 2012-K11 Read MPEC 2012-K13


    MPEC number:

    Enter an MPEC number in one of the following forms:

    • 1997-B01 (the full form)
    • J97B01 (the packed version of the full form)
    • B01 (the abbreviated form)